COSMOS 1832

Satellite information

Favourite Embed

Satellite Type and Status

PAYLOADIN ORBIT

Key statistics

Satellite COSMOS 1832 at a glance.

Uptime

13998

Days in orbit

Revolutions

≈ 12.6

Per day

Orbit

LEO

Low Earth Orbit

Inclination

82.6

Latest

Satellite identification and parameters

Extended collection of information and parameters for COSMOS 1832.

Object identification

Identified? True

Debris? False

Object name: COSMOS 1832

International designator: 1987-026F

Object number (NORAD): 17587

Object ID (CCSDS): 17587

Country: COMMONWEALTH OF INDEPENDENT STATES (CIS)

Current information (Y/N): Y

RCS size: LARGE

Orbital parameters

Period: 113.894 minutes

Inclination: 82.567 deg

SMA: 7783.249 km

Apoapsis: 1411.261 km

Periapsis: 1398.968 km

RAAN: 61.9855 deg

Eccentricy: 0.0007897

Argument of periapsis: 243.9234 deg

Mean anomaly: 170.6094 deg

Mean motion: 12.6433267 rev/day

Mean motion (dot): 0.00000034 rev/day2

B* drag term: 0.00012776 1/REarth

Two-line elements (TLE)

Creation date: July 9, 2025, 2:22 a.m.

Reference frame: TEME

Reference center: EARTH

Epoch: July 8, 2025, 4:22 p.m. UTC

TLE line 0: 0 COSMOS 1832

TLE line 1: 1 17587U 87026F 25189.68256539 .00000034 00000-0 12776-3 0 9993

TLE line 2: 2 17587 82.5670 61.9855 0007897 243.9234 170.6094 12.64332670768293

Live tracking on map

Real-time ground track for satellite COSMOS 1832.

In-orbit conjunctions

There are no conjunctions computed for COSMOS 1832, at the moment. Check back to stay up to date, as we update our databases every day.

Go to all conjunctions

Associated space launch

Second generation store-dump military communications satellite

COSMOS 1832 was lifted into orbit during the mission ‘Tsiklon-3 | Strela-3 19 to 24’, on board a Tsiklon-3 space rocket.

The launch took place on March 13, 1987, 1:11 p.m. from 32/2.

For more information about the launch, click the button.

Launch to space Tsiklon-3 | Strela-3 19 to 24
Tsiklon-3 | Strela-3 19 to 24

Agency: N/A

Status: Launch Successful

Launch date: March 13, 1987, 1:11 p.m. UTC

Rocket: Tsiklon-3

Launch pad: 32/2

Location: Plesetsk Cosmodrome, Russian Federation

...

Latest news about this satellite

There are no fresh news available about this satellite. Check back as we update our databases every day.


Newsletter sign-up

Weekly statistics, charts and insights to help you stay on top of the space industry.